Home   Weather   Garland   Past weeks

Flag for USA Past Weather in Garland, Texas, USA — Yesterday and Last 2 Weeks

Now
84 °F

Fog.


Feels Like: 92 °F
Forecast: 78 / 91 °F
Wind: 10 mph from South

Location: Mesquite Metro Airport

Current Time: May 27, 2017 at 4:25:04 pm

Latest Report: May 27, 2017 at 3:50 pm


Visibility: 3 mi

Pressure: 29.82 "Hg

Humidity: 74%

Dew Point: 75 °F

Location of GarlandLocation

Past Weather in Garland — Graph

°F

Garland Temperature Yesterday

Maximum temperature yesterday: 91 °F (at 3:50 pm)
Minimum temperature yesterday: 72 °F (at 2:55 am)
Average temperature yesterday: 79 °F

High & Low Weather Summary for the Past Weeks

 TemperatureHumidityPressure
High91 °F (May 26, 3:50 pm)100% (May 15, 6:50 am)30.18 "Hg (May 15, 6:50 am)
Low54 °F (May 14, 5:35 am)24% (May 24, 3:50 pm)29.63 "Hg (May 25, 5:50 pm)
Average71 °F75%29.86 "Hg
* Reported May 12 2:50 pm — May 27 2:50 pm, Garland. Weather by CustomWeather, © 2017

Note: Actual official high and low records may vary slightly from our data, if they occured in-between our weather recording intervals... More about our weather records

Advertising

Garland Weather History for the Previous 24 Hours

Scroll right to see more
 ConditionsComfort  
Time TempWeatherWind HumidityBarometerVisibility
2:50 pm
Sat, May 27
84 °FFog.7 mph74%29.85 "Hg3 mi
1:50 pm82 °FFog.13 mph79%29.86 "Hg3 mi
12:50 pm86 °FFog.18 mph70%29.87 "Hg3 mi
11:50 am84 °FFog.18 mph70%29.87 "Hg5 mi
10:50 am82 °FMostly cloudy.17 mph79%29.86 "Hg7 mi
9:50 am81 °FOvercast.17 mph84%29.86 "Hg10 mi
8:50 am79 °FPartly sunny.14 mph89%29.86 "Hg7 mi
7:50 am79 °FFog.10 mph89%29.86 "Hg5 mi
6:50 am77 °FScattered clouds.9 mph89%29.86 "Hg5 mi
6:35 am77 °FScattered clouds.10 mph91%29.85 "Hg5 mi
6:15 am77 °FPassing clouds.9 mph91%29.85 "Hg7 mi
5:55 am77 °FOvercast.9 mph90%29.84 "Hg7 mi
5:35 am78 °FMostly cloudy.10 mph88%29.84 "Hg7 mi
5:15 am78 °FMostly cloudy.10 mph87%29.83 "Hg7 mi
4:55 am78 °FOvercast.13 mph87%29.83 "Hg7 mi
4:35 am78 °FOvercast.12 mph87%29.83 "Hg7 mi
3:55 am78 °FOvercast.13 mph86%29.83 "Hg7 mi
3:35 am78 °FOvercast.16 mph86%29.83 "Hg10 mi
2:55 am78 °FOvercast.13 mph87%29.83 "Hg10 mi
2:35 am78 °FOvercast.13 mph87%29.82 "Hg10 mi
2:15 am77 °FOvercast.12 mph88%29.82 "Hg10 mi
1:35 am77 °FClear.13 mph88%29.83 "Hg10 mi
1:15 am78 °FClear.13 mph87%29.83 "Hg10 mi
12:55 am78 °FClear.10 mph86%29.83 "Hg10 mi
12:35 am78 °FClear.10 mph86%29.83 "Hg10 mi
12:15 am78 °FClear.10 mph87%29.83 "Hg10 mi
11:55 pm
Fri, May 26
78 °FClear.8 mph87%29.83 "Hg10 mi
11:35 pm79 °FClear.10 mph86%29.83 "Hg10 mi
11:15 pm79 °FClear.9 mph85%29.83 "Hg10 mi
10:55 pm78 °FClear.8 mph87%29.82 "Hg10 mi
10:35 pm77 °FClear.5 mph88%29.82 "Hg10 mi
10:15 pm78 °FClear.No wind83%29.82 "Hg10 mi
9:55 pm79 °FClear.No wind81%29.81 "Hg10 mi
9:35 pm81 °FClear.6 mph76%29.80 "Hg10 mi
9:15 pm82 °FClear.8 mph72%29.79 "Hg10 mi
8:55 pm82 °FClear.9 mph70%29.79 "Hg10 mi
7:50 pm84 °FPassing clouds.12 mph66%29.78 "Hg10 mi
6:50 pm84 °FPassing clouds.13 mph66%29.78 "Hg10 mi
5:50 pm88 °FPassing clouds.16 mph59%29.78 "Hg10 mi
4:50 pm90 °FScattered clouds.18 mph55%29.78 "Hg10 mi
Weather by CustomWeather, © 2017

See weather overviewHow to use our weather pages